This is the latest recevied weather packets stored in our database for station/object N5DGC. If no packets are shown the sender has not sent any weather packets the latest 1 day(s).
| Time | Temp. | Humidity | Pressure | Rain* | Wind** | Luminosity | Snow |
|---|---|---|---|---|---|---|---|
| 1778022601 | 18.33° C | 42% | 1229 hPa | 0 mm | 0.89 m/s, 47° | 507 W/m² | - |
| 1778022298 | 17.78° C | 45% | 1228.9 hPa | 0 mm | 0.89 m/s, 30° | 525 W/m² | - |
| 1778021994 | 17.78° C | 44% | 1229.3 hPa | 0 mm | 1.34 m/s, 348° | 529 W/m² | - |
| 1778021692 | 17.78° C | 43% | 1229.3 hPa | 0 mm | 0.45 m/s, 329° | 552 W/m² | - |
| 1778021388 | 17.78° C | 43% | 1229.1 hPa | 0 mm | 1.34 m/s, 339° | 559 W/m² | - |
| 1778021085 | 18.89° C | 40% | 1229.1 hPa | 0 mm | 1.34 m/s, 344° | 577 W/m² | - |
| 1778020782 | 18.33° C | 42% | 1229.3 hPa | 0 mm | 0.45 m/s, 358° | 595 W/m² | - |
| 1778020479 | 18.33° C | 40% | 1229.3 hPa | 0 mm | 0.45 m/s, 21° | 610 W/m² | - |
| 1778020175 | 18.89° C | 40% | 1229.4 hPa | 0 mm | 0.89 m/s, 8° | 629 W/m² | - |
| 1778019872 | 18.89° C | 39% | 1229.6 hPa | 0 mm | 2.24 m/s, 345° | 650 W/m² | - |
| 1778019567 | 18.89° C | 40% | 1229.7 hPa | 0 mm | 0.45 m/s, 79° | 666 W/m² | - |
| 1778019265 | 18.33° C | 40% | 1229.7 hPa | 0 mm | 0.89 m/s, 151° | 695 W/m² | - |
| 1778018962 | 17.78° C | 40% | 1229.9 hPa | 0 mm | 1.34 m/s, 235° | 724 W/m² | - |
| 1778018659 | 17.78° C | 42% | 1229.9 hPa | 0 mm | 0.89 m/s, 142° | 719 W/m² | - |
| 1778018356 | 16.67° C | 43% | 1230 hPa | 0 mm | 0 m/s | 732 W/m² | - |
| 1778018054 | 16.67° C | 45% | 1230.4 hPa | 0 mm | 0.45 m/s, 125° | 794 W/m² | - |
| 1778017752 | 16.11° C | 50% | 1230.1 hPa | 0 mm | 1.34 m/s, 57° | 713 W/m² | - |
| 1778017449 | 15.56° C | 53% | 1230.6 hPa | 0 mm | 1.34 m/s, 150° | 653 W/m² | - |
| 1778017147 | 16.11° C | 53% | 1230.6 hPa | 0 mm | 0.89 m/s, 12° | 492 W/m² | - |
| 1778016844 | 16.11° C | 57% | 1230.5 hPa | 0 mm | 0.89 m/s, 133° | 265 W/m² | - |
| 1778016540 | 16.11° C | 51% | 1230.3 hPa | 0 mm | 0.45 m/s, 68° | 193 W/m² | - |
| 1778016237 | 16.67° C | 51% | 1230.4 hPa | 0 mm | 0.45 m/s, 66° | 150 W/m² | - |
| 1778015934 | 16.11° C | 47% | 1230.3 hPa | 0 mm | 0.45 m/s, 81° | 167 W/m² | - |
| 1778015631 | 16.11° C | 43% | 1230.4 hPa | 0 mm | 0.45 m/s, 353° | 139 W/m² | - |
| 1778015327 | 16.11° C | 42% | 1230.3 hPa | 0 mm | 0.89 m/s, 10° | 167 W/m² | - |
* Rain latest hour (hover to see other rain measurements)
** Current wind speed in m/s (hover to see current wind gust speed)